[[{"header":{"parameterUnit":"m.s-1","parameterCategory":1,"la1":30.2991,"la2":30.254,"lo1":-89.0895,"lo2":-89.0444,"dy":0.0017,"dx":0.0017,"nx":28,"ny":28,"refTime":"2024-04-11T09:00:00:Z","depth":0,"parameterNumber":2,"parameterNumberName":"U-component_of_WINDS"},"data":[0,0,0,0,0,0,0,0,0,0,0,0,0,0,0,0,0,0,0,0,0,0,0,0,0,0,0,0,0,0,0,0,0,0,0,0,0,0,0,0,0,0,0,0,0,0,0,0,0,0,0,0,0,0,0,0,0,0,9.6408,9.6411,0,9.6613,9.6616,9.6618,9.6573,9.6569,9.6566,9.6562,9.6772,9.6781,9.679,0,0,0,0,0,0,0,0,0,0,0,0,0,9.5981,9.5989,9.6408,9.6411,9.6413,9.6613,9.6616,9.6619,9.6574,9.6569,9.6565,9.656,9.6769,9.678,9.6791,0,0,0,0,0,0,0,0,0,0,0,0,0,9.6175,9.5992,9.6408,9.6415,9.6418,9.6612,9.6616,9.6619,9.6575,9.6569,9.6563,9.6558,9.6766,9.6779,9.6793,9.6993,0,0,9.6835,9.6841,0,0,0,0,0,0,0,0,9.6164,9.619,9.6412,9.6415,9.6418,9.6562,9.6542,9.6744,9.6576,9.6515,9.6562,9.6555,9.6707,9.6725,9.6776,9.7002,9.7011,9.6836,9.6844,9.685,9.6854,0,0,0,0,0,0,0,9.615,9.6181,9.6489,9.6415,9.6419,9.6409,9.643,9.658,9.6641,9.652,9.6517,9.6542,9.6708,9.6763,9.6781,9.7014,9.6835,9.6848,9.6856,9.6862,9.742,9.7426,0,0,0,0,0,0,9.6134,9.617,9.6483,9.6495,9.6274,9.6422,9.6445,9.6522,9.6639,9.6651,9.6547,9.6539,9.6742,9.6765,9.6788,9.7033,9.685,9.6863,9.6871,9.7413,9.7421,9.7429,0,0,0,0,0,0,9.6125,9.6162,9.6475,9.6332,9.6371,9.6435,9.6521,9.6529,9.6584,9.6659,9.667,9.6592,9.6739,9.6769,9.6943,9.704,9.6869,9.6882,9.7406,9.7416,9.7425,9.7523,0,0,0,0,0,0,9.6113,9.6159,9.6235,9.6334,9.6379,9.6625,9.6527,9.6537,9.6608,9.66,9.6705,9.6717,9.6737,9.6923,9.6957,9.7055,9.6892,9.7397,9.741,9.7422,9.7511,9.7535,9.7555,0,0,0,0,0,9.6098,9.6253,9.6239,9.6277,9.6475,9.6631,9.6657,9.6676,9.6616,9.6693,9.6742,9.6713,9.7023,9.6941,9.6979,9.7083,9.7391,9.7407,9.7421,9.7501,9.753,9.7554,0,0,0,0,0,0,9.6162,9.6266,9.6251,9.6443,9.6529,9.6623,9.6721,9.6705,9.681,9.6798,9.6818,9.6842,9.7021,9.7069,9.6975,9.7285,9.7199,9.7222,9.7247,9.7275,9.7296,9.7282,9.6904,0,0,0,0,0,9.6199,9.6316,9.6401,9.6562,9.6606,9.6657,9.6725,9.6733,9.6823,9.6858,9.692,9.7008,9.7126,9.7203,9.7315,9.7518,9.7542,9.7609,9.763,9.7648,9.7668,9.7783,9.7815,9.7477,9.7477,9.7477,0,0,9.6275,9.6347,9.6419,9.6577,9.6644,9.6767,9.6687,9.6819,9.6911,9.6878,9.7048,9.7097,9.7197,9.7387,9.7474,9.7433,9.7767,9.7667,9.768,9.7691,9.7802,9.7834,9.7862,9.7487,9.7485,9.7484,0,0,9.6478,9.6543,9.6687,9.6757,9.686,9.6893,9.6928,9.7026,9.7057,9.7227,9.7207,9.7317,9.7518,9.7591,9.7655,9.7891,9.7869,9.7927,9.8041,9.8153,9.8179,9.8203,9.829,9.8321,9.7946,9.7946,9.7947,0,9.6561,9.6744,9.6762,9.6899,9.697,9.6947,9.7094,9.7161,9.7295,9.7346,9.7298,9.7553,9.7618,9.7828,9.7886,9.7937,9.798,9.7915,9.8174,9.8198,9.822,9.8304,9.8336,9.7953,9.7952,9.7951,9.7951,0,9.6842,9.697,9.7074,9.7206,9.7289,9.743,9.7471,9.7553,9.7555,9.7594,9.777,9.7848,9.7978,9.8028,9.803,9.8239,9.8211,9.8169,9.8082,9.8259,9.8338,9.8369,9.7962,9.796,9.7958,9.7956,0,0,9.709,9.7233,9.7271,9.7333,9.7447,9.7547,9.7688,9.7815,9.7887,9.7981,9.8101,9.8274,9.8237,9.831,9.832,9.8418,9.8604,9.8364,9.8367,9.8408,9.8844,9.8876,9.8913,9.8591,9.8597,9.8601,9.8836,0,9.7306,9.7554,9.7577,9.7801,9.7921,9.7903,9.8026,9.8111,9.8152,9.8261,9.8306,9.8429,9.8369,9.8413,9.8509,9.8561,9.8692,9.8544,9.8705,9.871,9.8682,9.8953,9.8987,9.9205,9.8867,9.8872,9.8876,0,9.759,9.7695,9.7931,9.8032,9.8083,9.8194,9.8314,9.8418,9.8515,9.8538,9.8621,9.862,9.8767,9.8675,9.888,9.878,9.8847,9.8883,9.8892,9.8908,9.8804,9.898,9.9274,9.9308,9.8924,9.892,9.8916,0,9.7751,9.7951,9.8119,9.8172,9.8293,9.8372,9.8426,9.8516,9.8593,9.8699,9.8749,9.887,9.8937,9.9032,9.9065,9.8994,9.927,9.918,9.9295,9.9295,9.9355,9.9351,9.9667,9.9395,9.9395,9.9394,9.9393,0,9.7991,9.8137,9.8194,9.8297,9.8462,9.8487,9.8649,9.8699,9.8781,9.8895,9.8886,9.8994,9.9029,9.9144,9.917,9.9339,9.9368,9.9393,9.9398,9.9395,9.9392,9.944,9.9426,9.9403,9.9401,9.9399,9.9398,0,9.8199,9.8242,9.8425,9.8526,9.8554,9.8671,9.8758,9.8859,9.8899,9.9044,9.908,9.9143,9.9278,9.932,9.9482,9.95,9.9698,9.9688,9.9665,9.9666,9.9781,9.977,10.014,10.0191,9.9884,9.9887,9.9889,0,9.8349,9.8462,9.8575,9.8652,9.8709,9.8832,9.8911,9.8941,9.9023,9.9144,9.9231,9.9365,9.9473,9.969,9.9751,9.9876,9.9872,9.9993,9.989,9.9885,9.9877,9.9871,9.9884,10.0012,10.0015,10.0018,10.002,0,9.8614,9.8631,9.8744,9.8868,9.8962,9.906,9.9154,9.9217,9.9261,9.9355,9.9493,9.9578,9.9745,9.9879,10.0006,10.0063,10.0051,10.0052,10.0086,10.0084,10.0067,10.0081,9.972,10.0043,10.0041,10.0039,10.0038,10.0037,9.88,9.8901,9.8997,9.9125,9.92,9.9289,9.939,9.9444,9.9559,9.9698,9.9709,9.9859,9.9956,10.0127,10.0191,10.031,10.0275,10.0323,10.0336,10.0348,10.0359,10.0047,10.0333,10.0332,10.0332,10.0331,10.0331,0,9.9067,9.9129,9.9246,9.9379,9.9481,9.946,9.9564,9.9651,9.9783,9.9875,9.9983,10.0144,10.0274,10.0347,10.0478,10.056,10.0558,10.0593,10.0588,10.0603,10.0381,10.034,10.0593,10.0593,10.0593,10.0593,10.0593,10.0593,9.9217,9.9387,9.9416,9.9624,9.9685,9.9833,9.9895,9.9978,10.0052,10.0232,10.034,10.0387,10.0472,10.061,10.073,10.0748,10.0798,10.0838,10.0853,10.0644,10.0618,10.0592,10.0554,10.0848,10.0848,10.1065,10.1067,10.1068]},{"header":{"parameterUnit":"m.s-1","parameterCategory":1,"la1":30.2991,"la2":30.254,"lo1":-89.0895,"lo2":-89.0444,"dy":0.0017,"dx":0.0017,"nx":28,"ny":28,"refTime":"2024-04-11T09:00:00:Z","depth":0,"parameterNumber":3,"parameterNumberName":"V-component_of_WINDS"},"data":[0,0,0,0,0,0,0,0,0,0,0,0,0,0,0,0,0,0,0,0,0,0,0,0,0,0,0,0,0,0,0,0,0,0,0,0,0,0,0,0,0,0,0,0,0,0,0,0,0,0,0,0,0,0,0,0,0,0,-2.4058,-2.4058,0,-2.4001,-2.4,-2.4,-2.3975,-2.3975,-2.3975,-2.3975,-2.3912,-2.3911,-2.3909,0,0,0,0,0,0,0,0,0,0,0,0,0,-2.4145,-2.4144,-2.4058,-2.4058,-2.4057,-2.4001,-2.4,-2.3999,-2.3975,-2.3975,-2.3975,-2.3975,-2.3913,-2.3911,-2.3909,0,0,0,0,0,0,0,0,0,0,0,0,0,-2.4099,-2.4143,-2.4058,-2.4038,-2.4036,-2.4001,-2.4,-2.3999,-2.3975,-2.3975,-2.3975,-2.3975,-2.3914,-2.3911,-2.3908,-2.3889,0,0,-2.39,-2.3899,0,0,0,0,0,0,0,0,-2.4102,-2.4096,-2.4042,-2.4039,-2.4037,-2.3995,-2.4008,-2.3962,-2.3975,-2.3998,-2.3975,-2.3975,-2.394,-2.3935,-2.3924,-2.3886,-2.3883,-2.39,-2.3899,-2.3897,-2.3897,0,0,0,0,0,0,0,-2.4105,-2.4099,-2.4035,-2.4041,-2.4038,-2.4031,-2.4025,-2.3999,-2.3968,-2.3996,-2.3994,-2.3988,-2.3938,-2.3926,-2.3922,-2.3882,-2.39,-2.3898,-2.3896,-2.3895,-2.3828,-2.3828,0,0,0,0,0,0,-2.4112,-2.4101,-2.4037,-2.4034,-2.4071,-2.403,-2.4022,-2.4008,-2.3969,-2.3963,-2.3988,-2.3987,-2.3931,-2.3925,-2.392,-2.3895,-2.3897,-2.3895,-2.3893,-2.3828,-2.3828,-2.3828,0,0,0,0,0,0,-2.4114,-2.4107,-2.404,-2.4067,-2.4058,-2.4028,-2.4012,-2.4007,-2.3995,-2.3962,-2.3957,-2.3981,-2.3931,-2.3923,-2.3898,-2.3893,-2.3894,-2.3891,-2.3828,-2.3828,-2.3828,-2.3845,0,0,0,0,0,0,-2.4117,-2.4108,-2.41,-2.4067,-2.4057,-2.4019,-2.4012,-2.4006,-2.3991,-2.3989,-2.3955,-2.3949,-2.393,-2.3902,-2.3895,-2.3889,-2.3889,-2.3829,-2.3828,-2.3828,-2.3845,-2.3846,-2.3846,0,0,0,0,0,-2.412,-2.4106,-2.41,-2.4092,-2.4047,-2.4019,-2.4013,-2.3992,-2.3991,-2.3983,-2.3962,-2.395,-2.3895,-2.3899,-2.3891,-2.3885,-2.3829,-2.3828,-2.3828,-2.3845,-2.3846,-2.3846,0,0,0,0,0,0,-2.4136,-2.4101,-2.4094,-2.4069,-2.4047,-2.4015,-2.4004,-2.3993,-2.3971,-2.397,-2.3944,-2.3937,-2.3913,-2.3896,-2.3902,-2.3865,-2.3861,-2.3859,-2.3876,-2.3877,-2.3877,-2.3881,-2.3887,0,0,0,0,0,-2.4138,-2.4119,-2.4088,-2.4069,-2.4059,-2.4034,-2.402,-2.4007,-2.3983,-2.3973,-2.3951,-2.3927,-2.3905,-2.389,-2.3867,-2.3843,-2.3836,-2.3835,-2.3836,-2.3836,-2.3834,-2.3822,-2.3822,-2.3826,-2.3826,-2.3826,0,0,-2.4139,-2.4117,-2.4106,-2.4072,-2.4054,-2.4035,-2.4026,-2.4005,-2.399,-2.397,-2.3944,-2.3928,-2.39,-2.3875,-2.3863,-2.386,-2.3832,-2.3836,-2.3837,-2.3834,-2.3822,-2.3821,-2.3821,-2.3826,-2.3826,-2.3826,0,0,-2.4132,-2.4113,-2.4096,-2.4079,-2.4052,-2.4036,-2.4032,-2.4002,-2.399,-2.3965,-2.395,-2.3932,-2.3893,-2.3874,-2.386,-2.3849,-2.3838,-2.3843,-2.3845,-2.3833,-2.3833,-2.3833,-2.3829,-2.3828,-2.3841,-2.3841,-2.3841,0,-2.4136,-2.4107,-2.4088,-2.4069,-2.4055,-2.4038,-2.4021,-2.4005,-2.3971,-2.3962,-2.396,-2.3912,-2.3892,-2.3864,-2.3862,-2.3851,-2.3845,-2.3845,-2.3835,-2.3834,-2.3834,-2.383,-2.3829,-2.3842,-2.3842,-2.3842,-2.3842,0,-2.4115,-2.4095,-2.4084,-2.4055,-2.404,-2.4021,-2.4,-2.3987,-2.3976,-2.396,-2.3935,-2.3911,-2.3884,-2.3877,-2.3864,-2.3847,-2.3846,-2.384,-2.3835,-2.3834,-2.3831,-2.3829,-2.3843,-2.3843,-2.3843,-2.3842,0,0,-2.4113,-2.4076,-2.4073,-2.406,-2.4031,-2.4015,-2.3997,-2.3972,-2.3962,-2.394,-2.3924,-2.3894,-2.3889,-2.3872,-2.3858,-2.3848,-2.3843,-2.3843,-2.3842,-2.3844,-2.3823,-2.3828,-2.3827,-2.3836,-2.3835,-2.3835,-2.3826,0,-2.4102,-2.4069,-2.4053,-2.4028,-2.401,-2.3995,-2.3979,-2.396,-2.3945,-2.3928,-2.3911,-2.389,-2.3885,-2.3875,-2.3865,-2.3846,-2.3838,-2.3846,-2.382,-2.3819,-2.3827,-2.3825,-2.3829,-2.3821,-2.3824,-2.3824,-2.3824,0,-2.4083,-2.4064,-2.4037,-2.4013,-2.4005,-2.3991,-2.3968,-2.3952,-2.393,-2.392,-2.3904,-2.3891,-2.3872,-2.387,-2.3843,-2.3849,-2.3838,-2.3827,-2.3827,-2.3822,-2.3821,-2.382,-2.3818,-2.3817,-2.3821,-2.3821,-2.3822,0,-2.4086,-2.4053,-2.4033,-2.4023,-2.3993,-2.3985,-2.3972,-2.395,-2.3937,-2.3918,-2.3909,-2.3887,-2.3874,-2.3858,-2.3839,-2.384,-2.3814,-2.3811,-2.3805,-2.3806,-2.3799,-2.38,-2.3795,-2.3793,-2.3793,-2.3793,-2.3793,0,-2.4074,-2.4058,-2.4034,-2.4022,-2.4004,-2.3987,-2.397,-2.3955,-2.3937,-2.3922,-2.3908,-2.3894,-2.3871,-2.3854,-2.3839,-2.382,-2.3814,-2.3805,-2.3802,-2.3806,-2.3808,-2.3798,-2.3798,-2.3793,-2.3793,-2.3793,-2.3793,0,-2.4073,-2.4056,-2.4034,-2.4009,-2.4002,-2.3991,-2.3969,-2.3957,-2.3943,-2.3924,-2.3918,-2.3896,-2.3876,-2.3857,-2.3828,-2.3819,-2.38,-2.3795,-2.3807,-2.3805,-2.3801,-2.3801,-2.3789,-2.3786,-2.3787,-2.3787,-2.3787,0,-2.4066,-2.4054,-2.4029,-2.4018,-2.4007,-2.399,-2.3977,-2.396,-2.3948,-2.3924,-2.3914,-2.3894,-2.3876,-2.3844,-2.3825,-2.3804,-2.3799,-2.3796,-2.3795,-2.3801,-2.3799,-2.38,-2.3799,-2.3796,-2.3796,-2.3796,-2.3796,0,-2.4056,-2.4049,-2.4033,-2.4014,-2.4,-2.3984,-2.3967,-2.3959,-2.3939,-2.3926,-2.3906,-2.3893,-2.3866,-2.3846,-2.3824,-2.381,-2.38,-2.3797,-2.3795,-2.3799,-2.3807,-2.3803,-2.3808,-2.3797,-2.3797,-2.3797,-2.3797,-2.3797,-2.4052,-2.4041,-2.4023,-2.4005,-2.3991,-2.3977,-2.3965,-2.3951,-2.3934,-2.3912,-2.3903,-2.3883,-2.3864,-2.3833,-2.382,-2.3804,-2.3801,-2.3798,-2.3797,-2.3796,-2.3797,-2.381,-2.38,-2.38,-2.38,-2.38,-2.38,0,-2.4041,-2.403,-2.4014,-2.3992,-2.3979,-2.3973,-2.3955,-2.3944,-2.3927,-2.391,-2.3894,-2.3872,-2.3853,-2.3834,-2.3814,-2.3805,-2.38,-2.38,-2.38,-2.3798,-2.3801,-2.3805,-2.3805,-2.3805,-2.3805,-2.3805,-2.3805,-2.3805,-2.4034,-2.4016,-2.4008,-2.3984,-2.3971,-2.3953,-2.3944,-2.393,-2.3917,-2.3894,-2.3879,-2.3867,-2.385,-2.3829,-2.3812,-2.3807,-2.38,-2.3801,-2.3795,-2.3798,-2.3797,-2.3797,-2.3801,-2.38,-2.38,-2.3793,-2.3793,-2.3793]}]]